Back to catalog

COSMOS 1030 DEB

LostHEO
NORAD 32974·DEBRIS·🇷🇺 Russia

Launched Sep 6, 1978 from Plesetsk Cosmodrome

Loading…

Next Passes (next 24 hours)

TLE

StaleSource: Space-Track

Epoch: Aug 14, 2015, 07:29 UTC

1 32974U 78083S   15226.31214396  .00000601  00000-0  00000+0 0  9992
2 32974  67.2799  65.2066 5711197  87.5226  50.9838  1.99619725 64667

Track COSMOS 1030 DEB in real time with AllMySat

Download on the App Store